DateTimeUTC,F1_A11,F1_S11,BsB_S11,BsG_S11,BsR_S11,BbsB_S11,BbsG_S11,BbsR_S11,BaB_A11,BaG_A11,BaR_A11,Tu_S11,T_S11,Uu_S11,U_S11,P_S11,T1_A11
2021-02-17T15:00:00Z,00000200,21000000,,,,,,,0000.15,-000.08,-000.04,16.0,22.9,,00.0,0636.2,30.9
2021-02-17T15:01:00Z,00000200,21000000,,,,,,,-000.20,-000.25,0000.17,16.0,22.9,,00.0,0636.2,30.9
2021-02-17T15:02:00Z,00000200,21000000,,,,,,,0000.26,0000.09,-000.28,16.0,22.9,,00.0,0636.2,30.9
2021-02-17T15:03:00Z,00000200,61000000,,,,,,,0000.07,0000.41,0000.51,16.0,22.9,,00.0,0636.2,30.9
2021-02-17T15:04:00Z,00000200,41000000,-000.26,0000.40,-000.03,-000.51,-000.14,0000.05,0000.47,-000.32,0000.36,16.0,22.6,,00.0,0637.1,30.9
2021-02-17T15:05:00Z,00000200,01000000,0000.37,0000.09,0000.00,0000.21,-000.05,-000.08,0000.07,0000.70,-000.06,16.1,22.6,,00.0,0637.2,30.9
2021-02-17T15:06:00Z,00000200,01000000,-000.46,0000.07,0000.00,0000.25,0000.15,-000.24,0000.15,0000.15,0000.20,16.2,22.5,,00.0,0637.2,30.9
2021-02-17T15:07:00Z,00000200,01000000,-000.56,0000.03,-000.05,0000.21,-000.02,0000.18,0000.29,0000.26,0000.20,16.2,22.6,,00.0,0637.1,30.9
2021-02-17T15:08:00Z,00000200,01000000,-000.45,0000.21,-000.21,-000.10,0000.07,0000.02,0000.17,0000.00,0000.24,16.3,22.6,,00.0,0637.1,30.9
2021-02-17T15:09:00Z,00000200,01000000,-000.17,0000.04,0000.07,0000.18,0000.29,-000.06,0000.25,0000.47,0000.12,16.4,22.7,,00.0,0637.1,31.0
2021-02-17T15:10:00Z,00000200,01000000,-000.16,0000.17,-000.24,0000.25,-000.09,0000.19,0000.09,-000.22,0000.24,16.5,22.7,,00.0,0637.1,31.0
2021-02-17T15:11:00Z,00000200,01000000,0000.27,0000.20,0000.12,0000.66,-000.06,0000.15,0000.19,0000.04,-000.25,16.5,22.7,,00.0,0637.1,31.0
2021-02-17T15:12:00Z,00000200,01000000,-000.49,0000.01,-000.14,-000.03,-000.13,-000.32,0000.22,0000.29,0000.29,16.5,22.7,,00.0,0637.1,31.0
2021-02-17T15:13:00Z,00000200,01000000,0000.51,-000.01,-000.04,0000.40,0000.05,0000.27,0000.01,0000.22,0000.10,16.5,22.7,,00.0,0637.1,31.0
2021-02-17T15:14:00Z,00000200,01000000,0000.64,-000.28,-000.04,0001.00,-000.28,-000.12,0000.01,0000.12,0000.12,16.5,22.7,,00.0,0637.1,31.0
2021-02-17T15:15:00Z,00000200,01000000,0000.10,0000.05,-000.21,-000.10,0000.30,-000.16,0000.46,0000.45,-000.07,16.4,22.7,,00.0,0637.0,30.9
2021-02-17T15:16:00Z,00000200,01000000,0000.43,0000.18,0000.11,0000.09,0000.04,-000.14,0000.37,0000.58,0000.62,16.4,22.7,,00.0,0637.0,30.9
2021-02-17T15:17:00Z,00000200,01000000,-000.18,-000.18,-000.27,-000.23,-000.02,0000.11,-000.06,-000.23,-000.06,16.3,22.7,,00.0,0637.0,30.9
2021-02-17T15:18:00Z,00000200,01000000,0000.02,0000.37,-000.12,-000.13,0000.11,0000.03,0000.00,0000.25,0000.22,16.3,22.6,,00.0,0637.0,30.9
2021-02-17T15:19:00Z,00000200,01000000,-000.16,0000.22,0000.01,0000.05,0000.29,0000.21,0000.20,-000.53,-000.48,16.3,22.6,,00.0,0637.0,30.9
2021-02-17T15:20:00Z,00000200,01000000,0000.31,0000.37,0000.24,0000.35,0000.27,0000.13,0000.27,0000.35,0000.26,16.3,22.6,,00.0,0637.0,30.9
2021-02-17T15:21:00Z,00000200,01000000,-000.19,0000.04,-000.21,0000.45,0000.00,-000.21,-000.09,0000.08,0000.12,16.4,22.6,,00.0,0637.0,30.9
2021-02-17T15:22:00Z,00000200,01000000,-000.02,0000.24,-000.33,-000.04,0000.00,-000.17,0000.16,0000.08,0000.15,16.4,22.6,,00.0,0637.0,30.9
2021-02-17T15:23:00Z,00000200,01000000,-000.55,-000.28,0000.40,0000.05,0000.32,-000.03,0000.17,0000.09,-000.13,16.5,22.7,,00.0,0637.1,30.9
2021-02-17T15:24:00Z,00000200,01000000,-000.32,-000.19,-000.03,0000.47,-000.30,-000.05,-000.01,0000.11,0000.02,16.6,22.7,,00.0,0637.1,31.0
2021-02-17T15:25:00Z,00000200,01000000,0000.43,-000.07,-000.25,-000.78,0000.03,0000.09,-000.40,-000.24,-000.06,16.6,22.7,,00.0,0637.1,31.0
2021-02-17T15:26:00Z,00000200,01000000,0000.93,0000.16,-000.24,0000.03,-000.05,0000.04,-000.14,0000.02,-000.08,16.6,22.7,,00.0,0637.1,31.0
2021-02-17T15:27:00Z,00000200,01000000,0000.70,0000.02,-000.20,-000.01,-000.03,-000.05,0000.02,-000.14,0000.03,16.5,22.7,,00.0,0637.1,31.0
2021-02-17T15:28:00Z,00000200,01000000,-000.00,0000.08,0000.04,0000.38,-000.31,0000.05,-000.11,-000.09,-000.14,16.5,22.7,,00.0,0637.1,30.9
2021-02-17T15:29:00Z,00000200,01000000,0000.43,0000.11,-000.20,-000.32,-000.18,-000.03,0000.04,0000.15,0000.05,16.5,22.7,,00.0,0637.1,30.9
2021-02-17T15:30:00Z,00000200,01000000,0000.12,0000.09,-000.09,0000.23,0000.00,0000.02,-000.02,0000.15,0000.13,16.4,22.7,,00.0,0637.1,30.9
2021-02-17T15:31:00Z,00000200,01000000,-000.38,-000.23,-000.17,-000.50,0000.20,0000.01,-000.02,-000.31,-000.11,16.4,22.7,,00.0,0637.1,30.9
2021-02-17T15:32:00Z,00000200,01000000,0000.34,-000.04,0000.27,-000.37,0000.17,0000.17,0000.06,0000.34,-000.05,16.3,22.6,,00.0,0637.1,30.9
2021-02-17T15:33:00Z,00000200,01000000,-000.38,-000.01,-000.09,0000.36,-000.15,-000.12,0000.24,-000.39,0000.31,16.3,22.6,,00.0,0637.1,30.9
2021-02-17T15:34:00Z,00000200,01000000,-000.26,0000.31,-000.21,0000.24,0000.07,-000.13,0000.02,0000.09,-000.23,16.3,22.6,,00.0,0637.1,30.9
2021-02-17T15:35:00Z,00000200,01000000,-000.01,-000.01,-000.34,-000.11,-000.14,0000.00,0000.44,0000.35,0000.18,16.3,22.6,,00.0,0637.1,30.9
2021-02-17T15:36:00Z,00000200,01000000,-000.06,0000.23,0000.06,0000.68,-000.03,0000.10,-000.18,0000.07,0000.14,16.4,22.6,,00.0,0637.1,30.9
2021-02-17T15:37:00Z,00000200,01000000,0000.50,-000.02,-000.01,0000.07,0000.06,0000.21,0000.34,0000.10,0000.28,16.5,22.6,,00.0,0637.1,30.9
2021-02-17T15:38:00Z,00000200,01000000,-000.21,0000.02,-000.39,0000.45,0000.12,0000.19,-000.03,0000.13,0000.26,16.5,22.7,,00.0,0637.1,30.9
2021-02-17T15:39:00Z,00000200,01000000,-000.09,0000.20,-000.06,-000.32,0000.01,0000.05,-000.03,0000.06,-000.12,16.6,22.7,,00.0,0637.1,31.0
2021-02-17T15:40:00Z,00000200,01000000,0000.33,-000.10,-000.06,0000.31,0000.09,0000.06,-000.28,-000.40,-000.24,16.7,22.8,,00.0,0637.1,31.0
2021-02-17T15:41:00Z,00000200,01000000,-000.13,0000.08,-000.41,0000.61,-000.07,-000.17,0000.07,0000.33,-000.10,16.7,22.8,,00.0,0637.2,31.0
2021-02-17T15:42:00Z,00000200,01000000,-000.42,0000.10,-000.05,0000.76,0000.18,0000.03,-000.19,-000.47,-000.15,16.7,22.8,,00.0,0637.2,31.0
2021-02-17T15:43:00Z,00000200,01000000,-001.21,0000.17,-000.14,0000.15,-000.10,0000.00,-000.09,0000.14,0000.21,16.7,22.8,,00.0,0637.2,31.0
2021-02-17T15:44:00Z,00000200,01000000,-000.19,0000.04,-000.21,-000.20,0000.06,0000.26,0000.14,-000.07,-000.34,16.6,22.8,,00.0,0637.2,31.0
2021-02-17T15:45:00Z,00000200,01000000,0000.44,-000.06,-000.17,0000.11,0000.12,-000.08,-000.14,-000.04,0000.03,16.6,22.7,,00.0,0637.2,31.0
2021-02-17T15:46:00Z,00000200,01000000,0000.06,0000.35,-000.08,-000.18,-000.06,0000.07,0000.03,0000.31,-000.18,16.5,22.7,,00.0,0637.1,30.9
2021-02-17T15:47:00Z,00000200,01000000,0000.39,-000.21,-000.09,0000.35,0000.11,-000.09,-000.21,-000.22,0000.04,16.5,22.7,,00.0,0637.2,30.9
2021-02-17T15:48:00Z,00000200,01000000,0000.21,0000.37,0000.16,0000.27,0000.07,0000.06,-000.14,-000.01,-000.12,16.4,22.7,,00.0,0637.2,30.9
2021-02-17T15:49:00Z,00000200,01000000,-000.20,0000.25,-000.14,-000.06,0000.40,-000.03,0000.43,-000.25,0000.09,16.4,22.7,,00.0,0637.2,30.9
2021-02-17T15:50:00Z,00000200,01000000,0000.12,0000.02,0000.03,0000.41,0000.01,0000.12,0000.30,0000.37,0000.20,16.4,22.7,,00.0,0637.1,30.9
2021-02-17T15:51:00Z,00000200,01000000,-000.54,-000.15,-000.12,0000.01,0000.07,-000.12,-000.15,-000.14,0000.14,16.5,22.7,,00.0,0637.1,30.9
2021-02-17T15:52:00Z,00000200,01000000,-000.88,0000.09,0000.24,-000.21,-000.14,0000.02,0000.19,0000.20,0000.37,16.6,22.7,,00.0,0637.1,30.9
2021-02-17T15:53:00Z,00000200,01000000,0000.56,0000.02,-000.20,0000.21,-000.04,0000.01,0000.00,0000.44,-000.28,16.7,22.7,,00.0,0637.1,31.0
2021-02-17T15:54:00Z,00000200,01000000,-000.17,0000.26,-000.09,-000.08,0000.05,-000.12,0000.18,-000.45,0000.01,16.7,22.8,,00.0,0637.1,31.0
2021-02-17T15:55:00Z,00000200,01000000,-000.01,0000.08,-000.25,0000.06,0000.06,-000.16,-000.34,0000.08,0000.12,16.7,22.8,,00.0,0637.1,31.0
2021-02-17T15:56:00Z,00000200,01000000,0000.11,-000.09,-000.38,-000.07,-000.02,-000.04,0000.20,-000.03,-000.21,16.7,22.8,,00.0,0637.1,31.0
2021-02-17T15:57:00Z,00000200,41000000,,,,,,,-000.34,-000.21,-000.35,16.7,22.8,,00.0,0637.2,31.0
2021-02-17T15:58:00Z,00000200,61000000,,,,,,,-000.25,0000.15,0000.31,16.3,22.9,,00.0,0636.2,31.0
2021-02-17T15:59:00Z,00000200,21000000,,,,,,,0000.01,-000.12,-000.13,16.3,23.0,,00.0,0636.2,31.0
